Probability
0 0 0 0 1 1 1 0 0 0 0 0 0 0 0 0 0 0 0 0 0 0 0 0 0 0 0 0 0 0 0 0 0 0 0 0 0 0 0 0 0 0 0
0 0 0 0 0 0 0 0 0 0 0 0 0 0 0 0 0 0 0 0 0 0 0 0 0 0 0 0 0 0 0 0 0 0 0 0 0 0 0 0 0 0 0
0 0 0 0 0 0 0 0 0 0 0 0 0 0 0 0 0 0 0 0 0 0 0 0 0 0 0 0 0 0 0 0 0 0 0 0 0 0 0 0 0 0 0
0 0 0 0 0 0 0 0 0 0 0 0 0 0 0 0 0 0 0 0 0 0 0 0 0 0 0 0 0 0 0 0 0 0 0 0 0 0 0 0 0 0 0
0 0 0 0 0 0 0 0 0 0 0 0 0 0 0 0 0 0 0 0 0 0 0 0 0 0 0 0 0 0 0 0 0 0 0 0 0 0 0 0 0 0 0
0 0 0 0 0 0 0 0 0 0 0 0 0 0 0 0 0 0 0 0 0 0 0 0 0 0 0 0 0 0 0 0 0 0 0 0 0 0 0 0 0 0 0
0 0 0 0 0 0 0 0 0 0 0 0 0 0 0 0 0 0 0 0 0 0 0 0 0 0 0 0 0 0 0 0 0 0 0 0 0 0 0 0 0 0 0
0 0 0 0 0 0 0 0 0 0 0 0 0 0 0 0 0 0 0 0 0 0 0 0 0 0 0 0 0 0 0 0 0 0 0 0 0 0 0 0 0 0 0
0 0 0 0 0 0 0 0 0 0 0 0 0 0 0 0 0 0 0 0 0 0 0 0 0 0 0 0 0 0 0 0 0 0 0 0 0 0 0 0 0 0 0
0 0 0 0 0 0 0 0 0 0 0 0 0 0 0 0 0 0 0 0 0 0 0 0 0 0 0 0 0 0 0 0 0 0 0 0 0 0 0 0 0 0 0
0 0 0 0 0 0 0 0 0 0 0 0 0 0 0 0 0 0 0 0 0 0 0 0 0 0 0 0 0 0 0 0 0 0 0 0 0 0 0 0 0 0 0
0 0 0 0 0 0 0 0 0 0 0 0 0 0 0 0 0 0 0 0 0 0 0 0 0 0 0 0 0 0 0 0 0 0 0 0 0 0 0 0 0 0 0
0 0 0 0 0 0 0 0 0 0 0 0 0 0 0 0 0 0 0 0 0 0 0 0 0 0 0 0 0 0 0 0 0 0 0 0 0 0 0 0 0 0 0
0 0 0 0 0 0 0 0 0 0 0 0 0 0 0 0 0 0 0 0 0 0 0 0 0 0 0 0 0 0 0 0 0 0 0 0 0 0 0 0 0 0 0
0 0 0 0 0 0 0 0 0 0 0 0 0 0 0 0 0 0 0 0 0 0 0 0 0 0 0 0 0 0 0 0 0 0 0 0 0 0 0 0 0 0 0
0 0 0 0 0 0 0 0 0 0 0 0 0 0 0 0 0 0 0 0 0 0 0 0 0 0 0 0 0 0 0 0 0 0 0 0 0 0 0 0 0 0 0
0 0 0 0 0 0 0 0 0 0 0 0 0 0 0 0 0 0 0 0 0 0 0 0 0 0 0 0 0 0 0 0 0 0 0 0 0 0 0 0 0 0 0
0 0 0 0 0 0 0 0 0 0 0 0 0 0 0 0 0 0 0 0 0 0 0 0 0 0 0 0 0 0 0 0 0 0 0 0 0 0 0 0 0 0 0
0 0 0 0 0 0 0 0 0 0 0 0 0 0 0 0 0 0 0 0 0 0 0 0 0 0 0 0 0 0 0 0 0 0 0 0 0 0 0 0 0 0 0
0 0 0 0 0 0 0 0 0 0 0 0 0 0 0 0 0 0 0 0 0 0 0 0 0 0 0 0 0 0 0 0 0 0 0 0 0 0 0 0 0 0 0
0 0 0 0 0 0 0 0 0 0 0 0 0 0 0 0 0 0 0 0 0 0 0 0 0 0 0 0 0 0 0 0 0 0 0 0 0 0 0 0 0 0 0
0 0 0 0 0 0 0 0 0 0 0 0 0 0 0 0 0 0 0 0 0 0 0 0 0 0 0 0 0 0 0 0 0 0 0 0 0 0 0 0 0 0 0
0 0 0 0 0 0 0 0 0 0 0 0 0 0 0 0 0 0 0 0 0 0 0 0 0 0 0 0 0 0 0 0 0 0 0 0 0 0 0 0 0 0 0
0 0 0 0 0 0 0 0 0 0 0 0 0 0 0 0 0 0 0 0 0 0 0 0 0 0 0 0 0 0 0 0 0 0 0 0 0 0 0 0 0 0 0
0 0 0 0 0 0 0 0 0 0 0 0 0 0 0 0 0 0 0 0 0 0 0 0 0 0 0 0 0 0 0 0 0 0 0 0 0 0 0 0 0 0 0
0 0 0 0 0 0 0 0 0 0 0 0 0 0 0 0 0 0 0 0 0 0 0 0 0 0 0 0 0 0 0 0 0 0 0 0 0 0 0 0 0 0 0
Wind_Speed
5 5 5 6 6 6 6 7 8 7 7 8 8 8 8 8 8 8 9 9 10 10 9 10 11 9 7 7 6 6 6 6 8 5 3 2 3 4 4 3 4 4 5
5 5 5 6 6 6 7 7 7 7 7 8 8 9 9 9 8 9 10 10 10 11 11 11 11 9 9 8 7 8 7 7 6 6 4 2 3 4 3 3 2 2 3
4 5 5 6 6 6 7 7 6 7 7 8 8 9 9 9 9 9 10 10 11 12 11 11 11 10 10 8 8 8 7 6 5 4 4 2 2 2 2 1 2 2 2
4 4 5 6 6 7 7 7 7 7 7 8 8 9 9 9 9 10 10 10 11 11 10 11 11 11 10 9 8 8 6 6 5 4 3 2 2 2 2 2 1 1 1
4 5 6 6 6 6 7 7 7 7 8 8 8 9 9 8 8 9 9 10 10 10 10 10 11 11 13 11 9 7 7 6 5 4 3 2 2 3 3 2 2 1 0
5 6 6 6 6 6 7 7 7 7 8 7 8 8 9 9 13 15 12 9 9 10 10 10 9 10 12 15 15 12 10 8 7 5 4 5 5 4 3 3 3 2 1
5 6 6 6 6 7 8 7 7 7 7 8 8 8 9 11 15 16 16 11 9 9 9 8 7 8 10 8 9 10 10 11 11 8 7 7 6 6 6 4 3 2 1
6 6 6 6 7 7 7 8 8 7 7 8 8 8 9 11 15 16 16 11 9 9 9 9 8 8 7 7 6 5 5 5 7 6 6 6 5 6 6 5 4 3 2
6 6 6 6 7 7 7 8 8 8 8 8 8 8 9 11 15 16 14 7 6 8 8 8 8 8 9 8 6 5 4 2 2 4 5 5 6 7 6 5 5 4 2
7 7 6 6 6 8 8 8 7 7 8 8 8 8 9 10 13 14 13 5 5 5 5 5 9 9 9 8 6 6 5 4 3 3 3 4 4 6 6 6 6 5 3
7 7 7 6 7 8 7 7 7 7 7 7 9 8 8 9 11 12 11 4 3 4 3 3 4 8 8 7 5 5 6 5 4 4 3 2 2 2 2 2 3 4 4
6 6 7 7 7 7 7 7 7 6 7 7 7 8 6 6 8 9 9 7 5 3 2 2 3 6 6 5 4 6 7 5 4 4 3 2 2 2 2 3 3 2 2
7 7 7 7 6 6 6 7 6 5 5 6 6 7 6 5 5 9 8 7 5 2 1 3 4 5 5 4 5 6 4 4 4 4 3 2 2 3 4 4 4 5 5
7 7 7 7 7 6 5 5 5 5 5 6 6 6 6 5 4 4 3 3 2 0 2 4 5 5 4 4 4 3 3 3 4 4 3 3 3 3 3 3 4 4 5
7 7 7 6 6 6 6 5 6 5 6 8 6 5 5 5 6 8 5 2 1 1 2 2 3 3 3 3 2 2 3 3 3 3 4 3 3 3 3 3 3 3 4
6 6 5 5 5 5 6 7 9 9 13 14 11 8 6 7 9 7 5 3 2 1 2 3 3 3 3 3 3 3 3 3 3 3 4 4 4 4 4 4 4 4 5
6 6 5 5 5 5 5 6 7 9 11 10 9 9 8 8 7 5 3 2 2 0 2 3 2 3 3 3 3 3 3 3 3 4 4 4 4 5 5 5 4 5 5
6 7 7 5 5 5 5 5 5 6 7 6 7 9 9 8 6 5 3 2 1 1 2 3 2 2 3 3 3 3 3 3 3 4 4 4 5 5 5 5 4 5 5
5 5 5 4 4 4 4 4 4 5 5 5 5 6 8 7 6 5 4 1 1 2 2 2 2 2 3 3 3 3 4 3 4 4 4 4 5 5 5 5 5 8 6
5 9 8 5 4 4 4 4 4 4 5 5 4 4 4 4 3 4 3 1 2 2 2 2 2 2 2 3 3 4 4 4 4 4 4 4 4 5 5 6 6 6 5
4 5 8 5 4 4 4 4 4 4 4 4 4 5 6 3 2 3 2 2 1 2 2 2 2 2 2 2 3 4 4 4 4 4 4 4 5 5 5 5 6 5 6
3 4 4 3 4 3 4 3 3 4 4 4 4 4 7 3 2 2 2 2 1 1 2 2 2 2 2 2 3 4 4 4 4 4 4 5 5 5 6 6 6 6 6
4 4 4 3 3 5 5 3 3 3 4 4 3 4 4 3 3 3 2 2 1 1 2 2 2 2 2 2 2 2 4 4 4 5 6 6 6 6 6 7 7 7 7
3 4 3 3 3 3 3 3 3 3 3 3 3 3 3 3 3 3 3 2 2 1 2 2 2 3 3 2 2 2 2 3 4 4 6 7 7 6 6 7 7 7 7
3 3 3 3 3 3 3 3 3 3 3 3 3 2 3 2 2 3 2 2 2 1 2 2 2 3 3 3 3 3 6 7 6 5 4 6 7 7 7 8 7 7 7
3 3 3 3 3 3 3 3 3 3 3 2 2 2 2 2 2 2 2 2 2 1 2 2 3 3 4 4 4 6 7 8 8 8 4 5 7 8 8 7 9 8 8
Wind_Direction
264 263 269 271 269 269 259 255 255 257 257 258 258 256 253 252 250 246 248 250 250 252 250 247 248 244 240 241 238 238 241 235 249 264 247 232 223 227 226 220 208 200 195
265 272 275 279 282 280 270 265 262 261 260 259 261 259 258 258 252 249 253 253 252 253 253 250 250 246 240 240 237 238 240 232 227 251 255 230 227 219 211 212 211 199 188
277 280 283 286 285 282 277 275 271 269 271 269 265 263 261 258 254 252 251 252 252 252 251 250 248 242 242 239 237 239 240 234 216 222 241 227 221 205 187 214 182 168 186
286 287 286 283 280 278 278 274 272 272 273 271 268 267 263 261 259 257 256 255 255 254 251 251 247 238 238 236 239 236 235 229 215 210 222 211 210 197 182 182 167 144 160
295 291 283 281 282 282 284 281 278 273 274 273 271 272 268 264 261 262 260 259 258 258 256 252 244 239 240 239 241 231 221 220 208 205 208 209 205 193 197 173 168 132 51
293 289 288 288 288 287 287 288 284 282 278 278 275 274 275 274 276 275 273 267 262 257 258 254 243 237 243 244 247 240 225 216 205 202 208 202 207 198 177 164 159 162 219
293 294 294 295 295 294 295 296 289 283 280 279 278 275 275 277 279 280 276 273 262 256 253 249 247 243 242 236 239 239 235 230 217 207 204 206 200 192 175 175 180 176 199
295 296 296 296 296 299 299 296 292 288 284 280 279 279 279 279 282 282 282 274 263 255 249 240 235 236 227 222 214 218 222 220 216 209 204 203 197 184 180 176 159 117 83
294 294 293 293 295 296 295 294 294 294 288 283 283 281 280 282 282 284 283 271 259 256 249 234 224 223 225 221 200 197 196 209 191 177 183 183 177 175 169 144 145 144 159
290 290 289 288 288 289 287 290 292 291 289 292 288 282 278 279 283 287 286 269 260 259 248 230 224 221 219 212 192 179 181 186 161 134 124 124 140 156 171 173 166 164 160
293 294 293 292 288 286 287 290 293 294 296 293 290 288 282 280 286 289 291 280 259 263 242 223 212 209 208 201 194 180 181 171 149 137 127 118 115 129 141 141 155 169 171
299 299 296 294 294 298 295 295 295 294 296 295 295 295 287 284 288 292 296 291 276 259 236 201 174 171 174 179 179 163 159 152 137 134 131 135 137 137 124 109 98 92 100
304 301 300 300 296 295 294 297 301 297 293 294 294 293 297 297 294 300 305 306 294 261 182 156 148 147 146 146 144 144 144 139 137 139 143 146 137 134 119 102 87 89 79
303 305 306 307 305 302 298 295 297 298 296 293 294 294 295 299 303 307 303 314 323 104 111 121 120 118 113 109 121 123 124 144 148 146 142 137 127 123 123 122 118 111 96
304 305 308 305 304 304 300 293 292 283 286 291 287 280 285 290 296 301 299 297 292 171 132 114 116 123 121 116 117 119 122 131 131 135 136 134 133 133 128 121 121 114 112
305 307 306 306 305 305 306 308 299 294 301 297 293 291 288 288 298 302 305 304 292 228 127 120 127 134 139 142 141 134 130 136 142 139 140 142 146 139 126 116 115 117 119
298 301 302 304 305 307 309 312 316 320 318 317 321 323 317 318 319 314 310 320 308 212 113 116 125 136 141 142 143 142 142 143 142 141 143 144 139 133 129 128 124 119 117
297 299 302 299 299 301 305 307 309 313 321 327 332 334 336 335 330 326 321 348 34 69 107 126 132 134 136 142 146 144 141 139 140 141 139 138 136 133 132 131 129 129 127
299 297 298 296 296 300 304 308 310 312 312 316 325 335 341 343 346 346 345 35 116 111 109 116 124 131 133 136 142 143 143 143 142 139 135 136 137 135 132 130 128 128 123
299 304 308 305 307 311 311 314 315 315 314 317 324 330 336 347 360 358 3 33 91 105 110 115 119 128 128 134 137 141 139 138 137 136 135 137 135 132 133 133 131 130 126
302 308 315 313 313 314 315 316 315 314 318 321 325 331 337 345 349 351 2 22 68 98 109 116 117 122 127 130 135 137 139 139 139 138 136 135 131 128 128 127 125 124 124
302 303 307 308 311 315 314 312 313 313 317 319 327 336 343 352 360 4 4 10 32 72 106 116 115 117 124 131 138 142 143 143 143 138 135 132 129 126 125 126 125 124 125
300 304 307 307 306 311 315 320 320 318 320 325 328 335 343 356 1 359 354 357 16 59 80 101 112 108 98 102 120 138 146 149 150 147 141 137 133 132 133 131 131 132 131
298 299 303 305 308 307 311 315 315 314 318 322 329 336 341 347 351 347 348 355 11 57 82 96 110 120 119 111 111 115 121 130 131 136 139 139 136 134 132 130 130 132 132
299 299 303 304 309 310 309 308 309 311 315 319 327 333 339 343 345 343 346 354 11 65 91 103 110 115 121 123 125 128 130 129 130 129 128 130 131 131 131 130 130 130 129
300 299 300 302 303 304 302 302 305 309 312 317 324 329 333 337 337 338 344 356 21 65 87 96 108 116 120 118 125 130 129 126 129 128 124 129 131 132 133 130 131 130 127